Regional Weather Roundup
Issued by NWS

Home | Current Version | Previous Version | Graphics & Text | Print | Product List | Glossary On
Versions: 1 2 3 4 5 6 7 8 9 10 11 12 13 14 15 16 17 18 19 20 21 22 23 24 25 26 27 28 29 30 31 32 33 34 35 36 37 38 39 40 41 42 43 44 45 46 47 48 49 50
000
ASUS45 KPSR 221110
RWRAZ

ARIZONA HOURLY REGIONAL WEATHER ROUNDUP
NATIONAL WEATHER SERVICE PHOENIX AZ
400 AM MST FRI SEP 22 2017

NOTE: FAIR INDICATES FEW OR NO CLOUDS BELOW 12,000 FEET WITH NO
SIGNIFICANT WEATHER AND/OR OBSTRUCTIONS TO VISIBILITY.

AZZ001>003-036-221200-
NORTHWEST ARIZONA

CITY           SKY/WX    TMP DP  RH WIND       PRES   REMARKS
BULLHEAD CITY  CLEAR     70  19  14 CALM      29.71R
KINGMAN        CLEAR     52  38  58 S9        29.79S
$$

AZZ004>008-015-016-018-221200-
NORTH CENTRAL ARIZONA

CITY           SKY/WX    TMP DP  RH WIND       PRES   REMARKS
GRAND CANYON   MOCLDY    48  36  63 S3        29.90S
WILLIAMS       CLOUDY    52  37  58 SW10G18   29.91S
PRESCOTT       CLEAR     57  40  52 SE7       29.86R
FLAGSTAFF      CLEAR     48  35  60 SW7       29.93S
PAYSON           N/A     59  28  31 VRB5G12   29.91S
PAGE           PTCLDY    67  36  31 SW9G20    29.74S
$$

AZZ009>014-017-221200-
NORTHEAST ARIZONA

CITY           SKY/WX    TMP DP  RH WIND       PRES   REMARKS
WINSLOW        CLEAR     50  25  37 SW6       29.86R
SAINT JOHNS    CLEAR     54  37  52 W5        29.93S
WINDOW ROCK    PTCLDY    53  33  46 CALM      29.98S
SHOW LOW       CLEAR     57  36  44 S16G22    29.96S
$$

AZZ540-542>544-546-548-221200-
GREATER PHOENIX AREA

CITY           SKY/WX    TMP DP  RH WIND       PRES   REMARKS
PHOENIX        PTCLDY    77  52  41 W5        29.70S
BUCKEYE          N/A     68  48  49 CALM      29.72R
LUKE AFB       CLEAR     75  49  39 S7        29.69S
DEER VALLEY    CLEAR     73  49  42 S6        29.72S
SCOTTSDALE     CLEAR     75  49  39 CALM      29.75R
MESA-GATEWAY   PTCLDY    70  34  26 E6        29.74R
$$

AZZ539-553-221200-
SOUTHWEST MARICOPA COUNTY AND PINAL COUNTY

CITY           SKY/WX    TMP DP  RH WIND       PRES   REMARKS
CASA GRANDE    NOT AVBL
GILA BEND      FAIR      70  46  42 SW6       29.71R
$$

AZZ503-504-507>509-221200-
SOUTHEAST ARIZONA

CITY           SKY/WX    TMP DP  RH WIND       PRES   REMARKS
TUCSON         CLOUDY    75  48  38 SE7       29.83S
DAVIS-MONTHAN  CLOUDY    73  47  39 SE5       29.81F
NOGALES        CLEAR     60  33  36 E6        29.90S
SIERRA VISTA   CLEAR     65  38  37 SE14      29.94S
DOUGLAS        CLEAR     60  44  55 E8        29.92S
SAFFORD        CLEAR     64  39  39 E5        29.82R
$$

AZZ532-221200-
SOUTHWEST ARIZONA

CITY           SKY/WX    TMP DP  RH WIND       PRES   REMARKS
YUMA           CLEAR     69  39  33 NW14      29.72S
$$

CAZ041-043-047-048-061-525>527-560>570-221200-
SOUTHERN CALIFORNIA

CITY           SKY/WX    TMP DP  RH WIND       PRES   REMARKS
DOWNTOWN L.A.  CLEAR     62  53  72 CALM      29.83S
L.A. AIRPORT   PTCLDY    60  52  74 E8        29.83F
SAN DIEGO      MOCLDY    64  52  64 E6        29.86S
BURBANK        CLEAR     58  50  75 SE5       29.83S
ONTARIO        MOCLDY    56  48  74 W5        29.85S
RIVERSIDE      CLEAR     55  49  80 SE3       29.85S
PALM SPRINGS   CLEAR     64  46  52 W3        29.74S
EL CENTRO NAS  CLEAR     66  40  38 W22       29.76R
IMPERIAL       CLEAR     63  41  44 W8        29.73R
BLYTHE         CLEAR     66  44  45 CALM      29.72S
NEEDLES        CLEAR     69  24  18 NW7       29.72R
$$

NVZ020-UTZ003-221200-
SOUTHERN NEVADA-UTAH

CITY           SKY/WX    TMP DP  RH WIND       PRES   REMARKS
LAS VEGAS      CLEAR     60  28  29 SE6       29.77R
SALT LAKE CITY CLOUDY    44  40  85 SE6       29.83S
$$

NMZ009-TXZ055-221200-
NEW MEXICO-WEST TEXAS

CITY           SKY/WX    TMP DP  RH WIND       PRES   REMARKS
ALBUQUERQUE    PTCLDY    61  36  39 SE10      29.96S
EL PASO        CLEAR     72  46  39 SE6       29.89S
$$


........................KEY........................
SKY/WX - SKY CONDITION/WEATHER
TMP    - TEMPERATURE IN FAHRENHEIT
DP     - DEW POINT IN FAHRENHEIT
RH     - RELATIVE HUMIDITY IN PERCENT
WIND   - DIRECTION AND SPEED IN MILES PER HOUR (MPH)
VRB    - VARIABLE WIND DIRECTION
PRES   - MEAN SEA LEVEL PRESSURE IN INCHES OF MERCURY
         F - FALLING PRESSURE   R - RISING PRESSURE
         S - STEADY PRESSURE
VSB    - VISIBILITY IN MILES
HX     - HEAT INDEX IN FAHRENHEIT
WCI    - WIND CHILL INDEX IN FAHRENHEIT
TC     - TEMPERATURE IN CELSIUS WHICH IS ALSO KNOWN AS
         TEMPERATURE IN CENTIGRADE
AFB    - AIR FORCE BASE
         LUKE AFB IS LUKE AIR FORCE BASE
         DAVIS-MONTHAN IS DAVIS-MONTHAN AIR FORCE BASE
NAS    - NAVAL AIR STATION
         EL CENTRO NAS IS EL CENTRO NAVAL AIR STATION
N/A    - NOT AVAILABLE




USA.gov is the U.S. government's official web portal to all federal, state and local government web resources and services.